Home > Weather > Fort Lauderdale > Past weeks

Flag for U.S.A. Weather for the Past 2 Weeks in Fort Lauderdale, Florida, U.S.A.

Now
76 °F

Scattered clouds.


Feels Like: 78 °F
Forecast: 53 / 74 °F
Wind: 8 mph from North

Location: Fort Lauderdale / Hollywood International Airport

Current Time: Feb 13, 2016 at 3:31:07 PM

Latest Report: Feb 13, 2016 at 2:53 PM


Visibility: 10 mi

Pressure: 30.15 "Hg

Humidity: 47%

Dew point: 54 °F

Location of Fort LauderdaleLocation

Historic Weather in Fort Lauderdale — Graph

°F

Fort Lauderdale Temperature Yesterday

Maximum temperature yesterday: 74 °F (at 2:53 PM)
Minimum temperature yesterday: 53 °F (at 2:53 AM)
Average temperature yesterday: 64 °F

High & Low Weather Summary for the Past Weeks

 TemperatureHumidityPressure
High81 °F (Feb 2, 12:53 PM)97% (Feb 1, 6:53 AM)30.34 "Hg (Feb 1, 6:53 AM)
Low48 °F (Feb 8, 6:53 AM)25% (Feb 11, 2:53 PM)29.93 "Hg (Feb 9, 3:53 AM)
Average66 °F70%30.10 "Hg
* Reported Jan 29 1:53 PM — Feb 13 1:53 PM, Fort Lauderdale, Weather by CustomWeather, © 2016

Note: Actual official high and low records may vary slightly from our data, if they occured in-between our weather recording intervals... More about our weather records

Advertising

Fort Lauderdale Weather History for the Previous 24 Hours

 ConditionsComfort  
Time TempWeatherWind HumidityBarometerVisibility
1:53 PM
Sat, Feb 13
74 °FPassing clouds.10 mph53%30.16 "Hg10 mi
12:53 PM72 °FScattered clouds.9 mph59%30.19 "Hg10 mi
11:53 AM72 °FScattered clouds.10 mph59%30.23 "Hg10 mi
10:53 AM70 °FPassing clouds.13 mph64%30.24 "Hg10 mi
9:53 AM69 °FPassing clouds.9 mph68%30.24 "Hg10 mi
8:53 AM64 °FSunny.8 mph75%30.24 "Hg10 mi
7:53 AM59 °FSunny.5 mph84%30.23 "Hg10 mi
6:53 AM55 °FClear.No wind87%30.22 "Hg10 mi
5:53 AM56 °FClear.No wind87%30.20 "Hg10 mi
4:53 AM55 °FClear.No wind87%30.18 "Hg10 mi
3:53 AM56 °FClear.No wind84%30.18 "Hg10 mi
2:53 AM58 °FClear.No wind72%30.18 "Hg10 mi
1:53 AM59 °FClear.5 mph69%30.19 "Hg10 mi
12:53 AM60 °FClear.3 mph69%30.20 "Hg10 mi
11:53 PM
Fri, Feb 12
62 °FClear.6 mph62%30.21 "Hg10 mi
10:53 PM65 °FClear.7 mph70%30.21 "Hg10 mi
9:53 PM66 °FClear.5 mph68%30.21 "Hg10 mi
8:53 PM68 °FClear.3 mph63%30.22 "Hg10 mi
7:53 PM66 °FPassing clouds.No wind68%30.22 "Hg10 mi
6:53 PM69 °FPassing clouds.No wind61%30.20 "Hg10 mi
5:53 PM70 °FPassing clouds.7 mph61%30.20 "Hg10 mi
4:53 PM71 °FPassing clouds.12 mph61%30.19 "Hg10 mi
3:53 PM72 °FPassing clouds.12 mph59%30.19 "Hg10 mi
Weather by CustomWeather, © 2016

See weather overviewHow to use our weather pages